Regional Weather Roundup
Issued by NWS Grand Forks, ND

Home | Current Version | Previous Version | Graphics & Text | Print | Product List | Glossary On
Versions: 1 2 3 4 5 6 7 8 9 10 11 12 13 14 15 16 17 18 19 20 21 22 23 24 25 26 27 28 29 30 31 32 33 34 35 36 37 38 39 40 41 42 43 44 45 46 47 48 49 50
000
ASUS43 KFGF 280210
RWRFGF
PRAIRIE TO PINES  WEATHER ROUNDUP
NATIONAL WEATHER SERVICE EASTERN NORTH DAKOTA/GRAND FORKS ND
800 PM CST FRI FEB 27 2015

 **SATELLITE DATA USED TO AUGMENT SKY COVER AT AUTOMATED STATIONS**
 *****  WEATHER ACROSS EASTERN NORTH DAKOTA  *****

CITY           SKY/WX    TMP DP  RH WIND       PRES   REMARKS
GRAND FORKS    PTCLDY     6  -2  69 S10       30.35S WCI  -9
GRAND FRKS AFB PTCLDY     5  -3  70 S10       30.34S WCI -10
GRAND FRKS NWS   N/A      9 N/A N/A S14         N/A  WCI  -8
DEVILS LAKE    PTCLDY     7  -2  66 S6        30.26S WCI  -3
FARGO          CLEAR      7  -3  64 S8        30.39S WCI  -6
WAHPETON ARPT  CLEAR      9  -2  61 S9        30.42R WCI  -5
$$

 ***** WEATHER ACROSS CENTRAL AND WESTERN NORTH DAKOTA  *****

CITY           SKY/WX    TMP DP  RH WIND       PRES   REMARKS
BISMARCK       PTCLDY     9   2  73 E5        30.21R WCI   1
MINOT          PTCLDY    10   0  63 SE3       30.15S
JAMESTOWN      CLEAR      5  -1  76 S12       30.28R WCI -11
MINOT AFB      MOCLDY     6   0  76 S13       30.13F WCI -10
GARRISON         N/A      8   1  73 SE9       30.15S WCI  -5
WILLISTON      CLOUDY    22   7  52 S5        30.05S WCI  16
DICKINSON      MOCLDY    17   6  62 SE12      30.02S WCI   4
HETTINGER      CLOUDY    21   5  50 SE10      30.05R WCI  10
$$

 *****  OTHER AIRPORT OBSERVATIONS IN OUR AREA  *****

CITY           SKY/WX    TMP DP  RH WIND       PRES   REMARKS
WALHALLA         N/A      7   0  72 S3        30.28F
GRAFTON AIRPOR NOT AVBL
VALLEY CITY AR FAIR       3   0  85 S10       30.31S WCI -12
CANDO          FAIR       3   0  85 S10       30.24S WCI -12
CAVALIER APRT  FAIR      10   0  61 SW9       30.30S WCI  -2
GWINNER        CLEAR      5  -2  72 S10       30.36F WCI -10
ROLLA          FAIR       5   0  78 S10       30.19S WCI -10
 ***** THE ABOVE OBSERVATIONS ARE NON NWS ARE NOT QUALITY
       CONTROLLED AND MAY MIS-REPORT RAIN FOR SNOW...
$$

  *****  WEATHER ACROSS NORTHERN MINNESOTA  *****

CITY           SKY/WX    TMP DP  RH WIND       PRES   REMARKS
FLAG ISLAND    PTCLDY     7  -2  66 SW7       30.29S WCI  -5
WARROAD        CLEAR      7   0  72 SW7       30.30F WCI  -5
ROSEAU         PTCLDY     9   1  72 SW10      30.31S WCI  -6
HALLOCK        NOT AVBL
THF RVR FALLS  PTCLDY     3  -2  78 S7        30.34S WCI  -9
BAUDETTE       PTCLDY     6  -8  52 SW7       30.30S WCI  -6
WASKISH        PTCLDY     9  -2  61 CALM      30.34S
CROOKSTON      PTCLDY     5  -2  72 S8        30.37F WCI  -8
STEPHEN NDAWN    N/A      9   1  72 S14         N/A  WCI  -8
GREENBUSH NDAW   N/A      7   1  78 MISG        N/A
$$
  *****  WEATHER ACROSS CENTRAL AND WEST MINNESOTA  *****

CITY           SKY/WX    TMP DP  RH WIND       PRES   REMARKS
FOSSTON        CLEAR     -2  -8  78 S9        30.35F WCI -18
BEMIDJI        CLEAR      8  -5  54 SW5       30.34S WCI   0
PARK RAPIDS    CLEAR      3  -8  60 S7        30.36S WCI  -9
ELBOW LAKE     FAIR       1  -5  75 S8        30.40F WCI -13
WADENA         CLEAR      1  -6  71 SW3       30.39S
DETROIT LAKES  CLEAR      9   0  66 S7        30.38R WCI  -3
MOORHEAD       CLEAR     12   0  57 S8        30.40S WCI   1
FERGUS FALLS   CLEAR      3  -4  72 S8        30.44S WCI -10
MORRIS MN      CLEAR      1  -4  78 S6        30.42S WCI -10
STAPLES        CLEAR      5  -6  61 S3        30.40S
$$
  *****  WEATHER ELSEWHERE ACROSS MINNESOTA  *****

CITY           SKY/WX    TMP DP  RH WIND       PRES   REMARKS
DULUTH         CLEAR     12  -6  44 SW14      30.37R WCI  -3
INTRNTL FALLS  PTCLDY     9  -9  44 SW8       30.32R WCI  -3
ELY            PTCLDY     9  -9  43 SW3       30.32S
CLOQUET        CLEAR     10  -9  40 SW7       30.39S WCI   0
WHEATON        CLEAR      7  -2  66 S7        30.44S WCI  -5
BRAINERD       CLEAR      8  -9  45 S5        30.41R WCI   0
HIBBING        CLEAR      2 -12  52 SW5       30.35R WCI  -8
ALEXANDRIA     CLEAR      5  -5  63 S7        30.41S WCI  -7
SAINT CLOUD    CLEAR      8  -2  63 S9        30.47R WCI  -5
MINNEAPOLIS    CLEAR     10  -2  58 S6        30.53R WCI   0
$$

  *****  WEATHER ACROSS SOUTH DAKOTA  *****

CITY           SKY/WX    TMP DP  RH WIND       PRES   REMARKS
SIOUX FALLS    CLEAR     10   1  67 SE13      30.42S WCI  -5
BROOKINGS      NOT AVBL
WATERTOWN      CLEAR      5  -2  72 S10       30.35S WCI -10
HURON          CLEAR     11   0  61 SE13      30.36R WCI  -4
SISSETON         N/A      3  -3  76 S7        30.39S WCI  -9
ABERDEEN       CLEAR      4  -3  73 SE9       30.34F WCI -10
MITCHELL       CLEAR     15   3  59 SE13      30.39R WCI   1
PIERRE         CLEAR     18  -3  39 SE13      30.21S WCI   5
MOBRIDGE       NOT AVBL
RAPID CITY     MOCLDY    17   9  70 S13       30.02R WCI   4
$$

  *****  SOME WEATHER IN NEARBY STATES *****

CITY           SKY/WX    TMP DP  RH WIND       PRES   REMARKS
GLASGOW MT     PTCLDY    13   3  64 NW7       30.05R WCI   3
GREAT FALLS MT CLOUDY    17  12  80 N8        30.06R WCI   7
CHEYENNE WY    LGT SNOW  11   5  77 SW15      29.85R WCI  -5
SCOTTSBLUFF NE CLOUDY    19   9  65 S10       30.02R WCI   7
OMAHA NE       CLEAR     14   4  64 E5        30.54R WCI   6
DES MOINES IA  PTCLDY    10  -1  61 E5        30.59R WCI   2
DAVENPORT IA   PTCLDY    -4 -11  72 CALM      30.64R
CHICAGO IL     CLEAR      6  -6  57 SW6       30.63S WCI  -4
EAU CLAIRE WI  CLEAR      6  -4  63 SW6       30.52R WCI  -4
LA CROSSE WI   CLEAR      5  -6  60 S8        30.59R WCI  -8
$$

  *****  SOME NATIONAL WEATHER *****

CITY           SKY/WX    TMP DP  RH WIND       PRES   REMARKS
LA GUARDIA NY  CLEAR     25   4  40 NW15G23   30.55R WCI  13
RALEIGH NC     PTCLDY    35  18  49 NE5       30.50R
ATLANTA GA     PTCLDY    37  21  52 N10       30.40S
NEW ORLEANS LA PTCLDY    47  33  58 NE16      30.37R
OKLAHOMA CITY  CLOUDY    19  11  70 E9        30.45S WCI   8
ALBUQUERQUE NM LGT SNOW  24  22  91 N9        29.89S FOG     WCI  14
SALT LAKE CITY PTCLDY    37  27  67 S5        29.70S
LOS ANGELES CA MOCLDY    60  52  74 W18       29.76F
BOISE ID       CLOUDY    45  30  55 SE8       29.63R
SEATTLE WA     CLOUDY    49  43  80 N10       29.80R
$$

*** WEATHER ACROSS MANITOBA...SASKATCHEWAN AND ONTARIO ***
                ***ONTARIO***

CITY           SKY/WX    TMP DP  RH WIND       PRES   REMARKS
GERALDTON      PTCLDY    10  -6  48 SW12      30.18R WCI  -4
THUNDER BAY    MOCLDY    12  -9  37 SW6       30.33S WCI   3
SIOUX LOOKOUT  PTCLDY    10  -8  44 SW9       30.20R WCI  -2
TORONTO        CLEAR      5  -4  66 W5        30.60R WCI  -4
BIG TROUT LK   CLOUDY     9   1  72 W5        30.01R WCI   0
PICKLE LAKE    CLEAR      9  -6  52 SW13      30.07R WCI  -7
DRYDEN         CLEAR      9  -6  52 SW13G18   30.21R WCI  -7
KENORA         MOCLDY     5  -4  66 SW12      30.24S WCI -11
$$
                *** MANITOBA***

CITY           SKY/WX    TMP DP  RH WIND       PRES   REMARKS
BRANDON        CLOUDY     3  -4  72 SW2       30.19S
DAUPHIN        CLEAR      9  -2  61 SW9       30.16S WCI  -5
ISLAND LAKE    PTCLDY     7  -2  66 W9        30.07R WCI  -7
PILOT MOUND      N/A      0  -4  85 S14         N/A  WCI -19
THE PAS        CLOUDY    12   1  62 W9        30.12R WCI   0
THOMPSON       CLOUDY     9   0  66 W6        30.04R WCI  -1
WINNIPEG       MOCLDY     9   0  66 SW15      30.28S WCI  -8
LYNN LAKE      CLOUDY     7   1  78 W5        30.02S WCI  -2
CHURCHILL      CRYSTALS  -8 -11  84 SW7       29.96F WCI -22
GILLAM         FLURRIES   9   1  72 W7        30.00S WCI  -3
$$
                ***SASKATCHEWAN***

CITY           SKY/WX    TMP DP  RH WIND       PRES   REMARKS
ESTEVAN        CLOUDY     7   0  72 E3        30.09S
KINDERSLEY     PTCLDY     1  -2  85 NW9       30.14R WCI -14
LLOYDMINSTER   PTCLDY     0  -6  78 W9        30.14S WCI -16
PRINCE ALBERT  PTCLDY     0  -6  78 W5        30.15R WCI -10
REGINA         PTCLDY     0  -6  78 CALM      30.11R
YORKTON        CLEAR      0  -8  71 W7        30.12R WCI -13
N. BATTLEFORD  CLOUDY     3  -2  78 NW7       30.18R WCI  -9
LA RONGE       PTCLDY    10   0  61 W6        30.13S WCI   1
SASKATOON      FLURRIES   3  -4  72 NW7       30.17R WCI  -9
SWIFT CURRENT  FLURRIES   9   3  78 NW7       30.06R WCI  -3
$$
NOTE: THESE ARE AUTOMATED STATIONS WITH LIMITED QUALITY CONTROL
      "FAIR" INDICATES FEW OR NO CLOUDS BELOW 12,000 FEET WITH NO
      SIGNIFICANT WEATHER AND/OR OBSTRUCTIONS TO VISIBILITY.
      SKY/WX - SKY CONDITION AND SIGNIFICANT WEATHER.
      TMP - AIR TEMPERATURE.    DP   - DEWPOINT TEMPERATURE.
      RH  - RELATIVE HUMIDITY.  PRES - PRESSURE.
      HX  - HEAT INDEX.         WCI  - WIND CHILL INDEX.
$


USA.gov is the U.S. government's official web portal to all federal, state and local government web resources and services.